OBJECT J

Satellite information

Favourite Embed

Satellite Type and Status

UNKNOWNIN ORBIT

Key statistics

Satellite OBJECT J at a glance.

Uptime

1226

Days in orbit

Revolutions

≈ 15.2

Per day

Orbit

SSO

Sun Synchronous Orbit

Inclination

97.4

Latest

Satellite identification and parameters

Extended collection of information and parameters for OBJECT J.

Object identification

Identified? True

Debris? False

Object name: OBJECT J

International designator: 2022-019J

Object number (NORAD): 51832

Object ID (CCSDS): 51832

Country: PEOPLES REPUBLIC OF CHINA (PRC)

Current information (Y/N): Y

RCS size: LARGE

Orbital parameters

Period: 94.838 minutes

Inclination: 97.3886 deg

SMA: 6888.878 km

Apoapsis: 516.879 km

Periapsis: 504.606 km

RAAN: 254.1093 deg

Eccentricy: 0.0008908

Argument of periapsis: 8.0098 deg

Mean anomaly: 352.1277 deg

Mean motion: 15.18378531 rev/day

Mean motion (dot): 0.00001954 rev/day2

B* drag term: 0.000098271 1/REarth

Two-line elements (TLE)

Creation date: July 6, 2025, 10:46 p.m.

Reference frame: TEME

Reference center: EARTH

Epoch: July 6, 2025, 8:43 p.m. UTC

TLE line 0: 0 OBJECT J

TLE line 1: 1 51832U 22019J 25187.86335513 .00001954 00000-0 98271-4 0 9990

TLE line 2: 2 51832 97.3886 254.1093 0008908 8.0098 352.1277 15.18378531185368

Live tracking on map

Real-time ground track for satellite OBJECT J.

In-orbit conjunctions

There are no conjunctions computed for OBJECT J, at the moment. Check back to stay up to date, as we update our databases every day.

Go to all conjunctions

Associated space launch

Carried 22 satellites to sun-synchronous orbit on a share-ride mission, including the Hainan-1 satellites.

OBJECT J was lifted into orbit during the mission ‘Long March 8 (Core Only) | Hainan-1 to 4 & others’, on board a Long March 8 (Core Only) space rocket.

The launch took place on Feb. 27, 2022, 3:06 a.m. from 201.

For more information about the launch, click the button.

Launch to space Long March 8 (Core Only) | Hainan-1 to 4 & others
Long March 8 (Core Only) | Hainan-1 to 4 & others

Agency: N/A

Status: Launch Successful

Launch date: Feb. 27, 2022, 3:06 a.m. UTC

Rocket: Long March 8 (Core Only)

Launch pad: 201

Location: Wenchang Space Launch Site, People's Republic of China

...

Latest news about this satellite

News about space launch
China launches new variant of Long March 8 rocket

Two recent launches from China set a new record for the largest number of satellites ever deployed by a Chinese rocket, and added a new radar imaging capability to the country’s remote sensing fleet.

News about space launch
China launches national record 22 satellites on Long March 8 commercial rideshare

China’s second Long March 8 rocket launched late Saturday carrying a domestic record 22 satellites for a range of commercial Chinese space companies.


Newsletter sign-up

Weekly statistics, charts and insights to help you stay on top of the space industry.